Regional Weather Roundup
Issued by NWS Green Bay, WI

Home | Current Version | Previous Version | Text Only | Print | Product List | Glossary On
Versions: 1 2 3 4 5 6 7 8 9 10 11 12 13 14 15 16 17 18 19 20 21 22 23 24 25 26 27 28 29 30 31 32 33 34 35 36 37 38 39 40 41 42 43 44 45 46 47 48 49 50
000
ASUS43 KGRB 182010
RWRGRB

NORTH-CENTRAL AND NORTHEAST WISCONSIN REGIONAL WEATHER ROUNDUP
NATIONAL WEATHER SERVICE GREEN BAY WI
300 PM CDT SAT APR 18 2015

WIZ005-009-010>012-018-019-182100-
NORTH CENTRAL WISCONSIN

CITY           SKY/WX    TMP DP  RH WIND       PRES   REMARKS
IRONWOOD       SUNNY     61  25  25 E16       30.09F
MANITOWISH WTR SUNNY     62  25  24 E9        30.13F
ARBOR VITAE    SUNNY     62  20  20 SE12G17   30.12F
EAGLE RIVER    SUNNY     61  15  16 E13G18    30.14F
LAND O LAKES   SUNNY     61  16  17 SE13G21   30.15F
RHINELANDER    SUNNY     63  19  18 SE14G22   30.14F
PHILLIPS       SUNNY     65  28  24 SE12G17   30.10F
ANTIGO         SUNNY     60  28  29 E15       30.15S
TOMAHAWK       SUNNY     65  22  19 SE9       30.12F
MERRILL        SUNNY     64  27  25 SE8       30.12S
$$

WIZ013-073-182100-
NORTHEAST WISCONSIN

CITY           SKY/WX    TMP DP  RH WIND       PRES   REMARKS
IRON MOUNTAIN  SUNNY     59  24  26 SE3       30.17F
MARINETTE      MOSUNNY   52  32  46 E12       30.20F
OCONTO         MOSUNNY   55  31  38 E12       30.19S
$$

WIZ017-030-035>037-045-182100-
CENTRAL WISCONSIN

CITY           SKY/WX    TMP DP  RH WIND       PRES   REMARKS
MEDFORD        MOSUNNY   62  30  30 SE12G18   30.11S
WAUSAU         SUNNY     61  25  25 SE16G24   30.11F
MOSINEE        SUNNY     61  28  29 E10       30.14F
MARSHFIELD     PTSUNNY   63  30  28 E16       30.10F
WISC RAPIDS    MOSUNNY   63  24  22 SE13      30.12F
STEVENS POINT  MOSUNNY   59  24  26 SE16G25   30.14S
WAUPACA        MOSUNNY   63  28  26 NE16G22   30.16S
SHAWANO        MOSUNNY   62  27  26 E14       30.18S
CLINTONVILLE   MOSUNNY   61  27  27 E13       30.16F
$$

WIZ038-039-048-051-182100-
FOX VALLEY

CITY           SKY/WX    TMP DP  RH WIND       PRES   REMARKS
NWS GREEN BAY  MOSUNNY   57  37  47 NE17      30.18S
APPLETON       MOSUNNY   57  32  38 NE15      30.16F
OSHKOSH        SUNNY     59  30  33 E17G24    30.13F
FOND DU LAC    SUNNY     63  27  25 NE15G25   30.12F
$$

WIZ022-050-052-182100-
EAST CENTRAL WISCONSIN

CITY           SKY/WX    TMP DP  RH WIND       PRES   REMARKS
STURGEON BAY   MOSUNNY   54  25  32 NE12G18   30.21F
MANITOWOC      MOSUNNY   52  35  52 NE15G21   30.16F
SHEBOYGAN      SUNNY     54  36  50 NE15      30.14F
$$

LMZ563-521-522-541>543-182100-
LAKESHORE

STATION/POSITION TIME  TEMP    WIND        PRES    VSBY  WAVE
                       AIR SEA DIR/SP/G                  HT/PER
                 (UTC) (F)     (DEG/KT/KT) (MB)    (MI)  (FT/S)
SHEBOYGAN LKSHOR 2000   41      10/ 20/ 23 1021.4F
KEWAUNEE LKSHORE 2000   47      30/ 15/ 21 1021.0F
NORTHPORT PIER   2000   45      90/  5/  8 1023.0S
SISTER BAY LKSHO 1900   58      20/  9/ 17   N/A
CHAMBERS ISLAND  2000   43      20/ 11/ 13 1023.0F
MENOMINEE LKSHOR 2000   45      40/ 12/ 13 1023.3F
$$


USA.gov is the U.S. government's official web portal to all federal, state and local government web resources and services.